Hourly Data Report for October 23, 2013

All times are specified in Local Standard Time (LST). Add 1 hour to adjust for Daylight Saving Time where and when it is observed.

KAMLOOPS A
BRITISH COLUMBIA

50°42'09.000" N
120°26'55.000" W
345.30 m
1163781
71887
YKA

Download Data

Hourly Data (October 2013)
Hourly Data Report for October 23, 2013
Temp Definition
°C
Dew Point Temp Definition
°C
Rel Hum Definition
%
Wind Dir Definition
10's deg

Wind Spd Definition
km/h
Visibility Definition
km
Stn Press Definition
kPa
Hmdx Definition


Wind Chill Definition


Weather Definition


TIME
00:00 Legend Double Dagger 6.6 5.1 90 11 8 8.1 98.20     Fog
01:00 Legend Double Dagger 6.4 5.0 91 13 5 8.1 98.19     Fog
02:00 Legend Double Dagger 6.3 5.1 92 14 4 8.1 98.19     Fog
03:00 Legend Double Dagger 6.1 4.9 92 9 2 8.1 98.19     Fog
04:00 Legend Double Dagger 6.1 4.9 92 33 3 8.1 98.23     Fog
05:00 Legend Double Dagger 6.0 5.0 93 10 6 8.1 98.27     Fog
06:00 Legend Double Dagger 5.7 4.7 93 11 9 11.3 98.26     LegendNANA
07:00 Legend Double Dagger 5.8 4.6 92 10 2 11.3 98.28     Cloudy
08:00 Legend Double Dagger 5.7 4.8 94 31 1 8.1 98.31     Drizzle,Fog
09:00 Legend Double Dagger 5.8 4.5 91 32 3 9.7 98.32     Moderate Drizzle,Fog
10:00 Legend Double Dagger 6.1 4.4 89 1 4 16.1 98.34     Cloudy
11:00 Legend Double Dagger 6.3 4.5 88 20 2 24.1 98.32     LegendNANA
12:00 Legend Double Dagger 6.9 4.6 85 7 7 24.1 98.26     LegendNANA
13:00 Legend Double Dagger 7.5 4.3 80 12 9 24.1 98.18     Cloudy
14:00 Legend Double Dagger 7.8 4.8 81 8 7 24.1 98.11     LegendNANA
15:00 Legend Double Dagger 7.9 4.9 81 8 7 24.1 98.05     LegendNANA
16:00 Legend Double Dagger 7.4 4.7 83 10 13 24.1 98.01     Mainly Clear
17:00 Legend Double Dagger 7.1 4.9 86 10 10 24.1 98.00     LegendNANA
18:00 Legend Double Dagger 7.7 5.5 86 12 8 24.1 98.01     LegendNANA
19:00 Legend Double Dagger 7.7 5.4 85 8 12 16.1 98.01     Cloudy
20:00 Legend Double Dagger 7.7 5.4 85 7 8 16.1 98.02     LegendNANA
21:00 Legend Double Dagger 7.5 5.3 86 9 7 16.1 98.03     LegendNANA
22:00 Legend Double Dagger 7.2 4.9 85 12 7 16.1 98.05     Cloudy
23:00 Legend Double Dagger 7.0 4.8 86 11 8 16.1 98.04     LegendNANA

Notes on Data Quality.

Legend

  • E = Estimated
  • M = Missing
  • NA = Not Available
  • ‡ = Partner data that is not subject to review by the National Climate Archives
Date modified: